User: anonymous   Login
Location: Unspecified
(0.0000°N, 0.0000°E)
Time: 08:05:33
(UTC+00:00)
Language:

Nova 3 - Orbit

View from above orbital plane
View from above orbital plane
View from above satellite
View from above satellite

Ground track
Ground track

The orbit data is extracted from the following two-line orbital elements,

1 15362U 84110A   19345.68666494 +.00000018 +00000-0 +22467-4 0  9996
2 15362 090.0723 059.7447 0030115 252.0760 221.1660 13.22778128697043
Epoch (UTC): 11 December 2019 16:28:47
Eccentricity: 0.0030115
inclination: 90.0723°
perigee height: 1151 km
apogee height: 1197 km
right ascension of ascending node: 59.7447°
argument of perigee: 252.0760°
revolutions per day: 13.22778128
mean anomaly at epoch: 221.1660°
orbit number at epoch: 69704

The dashed part of the orbit path shows where the satellite is in the earth's shadow,  

DLR